Weather in Baoshan

China     46°37′51″N   131°08′50″E
temp.,
°C
wind,
m/s
gust,
m/s
humid.,
%
clouds,
%
prec.,
mm/h
press.,
hPa
HPBL,
m
9 march, tue
tue923:00−4ssw487567 0.0 1017113
02:00−3ssw5127283 0.0 1014187
05:00−2sw61966100 0.0 1011498
08:00−1wsw10197683 0.0 1009656
11:00+1w9128734 0.0 1008852
14:00+1wnw8138767 0.3 10081095
17:00−1nnw9157580 0.3 1013880
20:00−6wnw6167856 0.3 1019971
10 march, wed
wed1023:00−6wnw818778 0.0 1022678
02:00−7wnw816784 0.0 1025483
05:00−8w612790 0.0 1027284
08:00−5w59720 0.0 1028344
11:00−1w46580 0.0 1027625
14:000wsw476021 0.0 1024559
17:00−2s3578100 0.0 102383
20:00−4ssw358265 0.0 102373
11 march, thu
thu1123:00−4sw49730 0.0 1022152
02:00−5w48760 0.0 1023136
05:00−6w35810 0.0 102582
08:00−3nw410730 0.0 1028482
11:000nw57650 0.0 1028625
14:00+1nw34530 0.0 1027645
17:00−2wsw12640 0.0 102721
20:00−3ssw22620 0.0 102921
12 march, fri
fri1223:00−4ssw11620 0.0 103021
02:00−5sw11610 0.0 102921
05:00−6wsw11650 0.0 103021
08:00−3wsw11560 0.0 1031117
11:00+2w23460 0.0 1030478
14:00+4wnw23440 0.0 1028733
17:00+1sw22610 0.0 102624
20:00−1ssw35610 0.0 102771
13 march, sat
sat1323:00−1sw33650 0.0 102652
02:00−2sw23740 0.0 102441
05:00−3ssw23760 0.0 102433
08:00+1sw25640 0.0 1022253
11:00+7wsw47540 0.0 1020686
14:00+8wsw58580 0.0 1018813
17:00+3sw36760 0.0 1017122
20:00+2sw410800 0.0 1018205